• In Uzbekistan
  • List of Countries
  • For 7 days
  • Water Temperature
  • Satellite Maps
  • Weather Map
  • Weather Widgets
  • user-avatar
    Login

    Hourly Weather Punta Cana

    Today, 16 January, Tuesday

    Time Temperature Precipitation Wind Pressure Humidity
    00:00 +26°C° 0 mm 5 mps 763 mmHg 81%
    01:00 +26°C° 0 mm 5 mps 763 mmHg 81%
    02:00 +26°C° 0 mm 5 mps 763 mmHg 81%
    03:00 +25°C° 0 mm 5 mps 763 mmHg 82%
    04:00 +25°C° 0 mm 5 mps 762 mmHg 82%
    05:00 +26°C° 0.1 mm 5 mps 763 mmHg 80%
    06:00 +26°C° 0.1 mm 5 mps 763 mmHg 79%
    07:00 +26°C° 0.1 mm 5 mps 763 mmHg 77%
    08:00 +27°C° 0.3 mm 5 mps 764 mmHg 74%
    09:00 +28°C° 0.3 mm 5 mps 764 mmHg 70%
    10:00 +29°C° 0.3 mm 6 mps 764 mmHg 67%
    11:00 +29°C° 0.2 mm 6 mps 764 mmHg 66%
    12:00 +30°C° 0.2 mm 6 mps 763 mmHg 65%
    13:00 +30°C° 0.2 mm 6 mps 763 mmHg 65%
    14:00 +30°C° 0.2 mm 6 mps 762 mmHg 67%
    15:00 +29°C° 0.2 mm 6 mps 762 mmHg 70%
    16:00 +29°C° 0.2 mm 6 mps 762 mmHg 72%
    17:00 +28°C° 0.4 mm 6 mps 762 mmHg 76%
    18:00 +27°C° 0.4 mm 6 mps 763 mmHg 80%
    19:00 +26°C° 0.4 mm 6 mps 763 mmHg 84%
    20:00 +26°C° 0.2 mm 6 mps 763 mmHg 84%
    21:00 +26°C° 0.2 mm 6 mps 763 mmHg 84%
    22:00 +26°C° 0.2 mm 6 mps 764 mmHg 84%
    23:00 +26°C° 0 mm 6 mps 763 mmHg 84%

    Tomorrow, 17 January, Wednesday

    Time Temperature Precipitation Wind Pressure Humidity
    00:00 +26°C° 0 mm 6 mps 763 mmHg 84%
    01:00 +26°C° 0 mm 6 mps 763 mmHg 85%
    02:00 +26°C° 0 mm 6 mps 763 mmHg 85%
    03:00 +26°C° 0 mm 6 mps 762 mmHg 86%
    04:00 +26°C° 0 mm 6 mps 762 mmHg 86%
    05:00 +26°C° 0 mm 5 mps 763 mmHg 86%
    06:00 +26°C° 0 mm 5 mps 763 mmHg 86%
    07:00 +26°C° 0 mm 5 mps 763 mmHg 85%
    08:00 +28°C° 0 mm 5 mps 764 mmHg 79%
    09:00 +29°C° 0 mm 5 mps 764 mmHg 73%
    10:00 +30°C° 0 mm 5 mps 764 mmHg 67%
    11:00 +30°C° 0 mm 5 mps 764 mmHg 66%
    12:00 +32°C° 0 mm 5 mps 763 mmHg 65%
    13:00 +32°C° 0 mm 5 mps 762 mmHg 63%
    14:00 +30°C° 0 mm 5 mps 762 mmHg 66%
    15:00 +30°C° 0 mm 4 mps 762 mmHg 68%
    16:00 +29°C° 0 mm 4 mps 761 mmHg 70%
    17:00 +28°C° 0 mm 4 mps 762 mmHg 75%
    18:00 +27°C° 0 mm 4 mps 762 mmHg 81%
    19:00 +26°C° 0 mm 4 mps 763 mmHg 86%
    20:00 +26°C° 0.3 mm 4 mps 763 mmHg 86%
    21:00 +26°C° 0.3 mm 4 mps 763 mmHg 86%
    22:00 +26°C° 0.3 mm 5 mps 763 mmHg 86%
    23:00 +26°C° 0.5 mm 4 mps 763 mmHg 86%

    Day after tomorrow, 18 January, Thursday

    Time Temperature Precipitation Wind Pressure Humidity
    00:00 +25°C° 0.5 mm 4 mps 763 mmHg 87%
    01:00 +25°C° 0.5 mm 4 mps 762 mmHg 88%
    02:00 +25°C° 0.5 mm 4 mps 762 mmHg 89%
    03:00 +25°C° 0.5 mm 4 mps 762 mmHg 89%
    04:00 +25°C° 0.5 mm 4 mps 762 mmHg 90%
    05:00 +25°C° 0.3 mm 4 mps 762 mmHg 90%
    06:00 +26°C° 0.3 mm 4 mps 763 mmHg 90%
    07:00 +26°C° 0.3 mm 4 mps 763 mmHg 90%
    08:00 +27°C° 0 mm 4 mps 763 mmHg 83%
    09:00 +29°C° 0 mm 4 mps 764 mmHg 76%
    10:00 +30°C° 0 mm 5 mps 764 mmHg 68%
    11:00 +32°C° 0.1 mm 4 mps 764 mmHg 66%
    12:00 +32°C° 0.1 mm 4 mps 763 mmHg 63%
    13:00 +32°C° 0.1 mm 4 mps 762 mmHg 60%
    14:00 +32°C° 0 mm 4 mps 762 mmHg 64%
    15:00 +30°C° 0 mm 4 mps 762 mmHg 68%
    16:00 +29°C° 0 mm 4 mps 761 mmHg 72%
    17:00 +28°C° 0.2 mm 4 mps 762 mmHg 77%
    18:00 +27°C° 0.2 mm 4 mps 762 mmHg 82%
    19:00 +26°C° 0.2 mm 5 mps 763 mmHg 87%
    20:00 +26°C° 0.3 mm 5 mps 763 mmHg 86%
    21:00 +26°C° 0.3 mm 5 mps 763 mmHg 85%
    22:00 +26°C° 0.3 mm 5 mps 763 mmHg 84%
    23:00 +26°C° 0.2 mm 5 mps 763 mmHg 85%

    19 January, Friday

    Time Temperature Precipitation Wind Pressure Humidity
    00:00 +26°C° 0.2 mm 5 mps 763 mmHg 86%
    01:00 +26°C° 0.2 mm 5 mps 763 mmHg 86%
    02:00 +26°C° 0.1 mm 5 mps 763 mmHg 86%
    03:00 +26°C° 0.1 mm 5 mps 762 mmHg 86%
    04:00 +25°C° 0.1 mm 4 mps 762 mmHg 86%
    05:00 +26°C° 0 mm 4 mps 763 mmHg 86%
    06:00 +26°C° 0 mm 4 mps 763 mmHg 85%
    07:00 +26°C° 0 mm 4 mps 764 mmHg 84%
    08:00 +28°C° 0 mm 4 mps 764 mmHg 78%
    09:00 +29°C° 0 mm 5 mps 764 mmHg 72%
    10:00 +30°C° 0 mm 5 mps 765 mmHg 65%
    11:00 +32°C° 0 mm 4 mps 764 mmHg 63%
    12:00 +32°C° 0 mm 4 mps 763 mmHg 61%
    13:00 +32°C° 0 mm 4 mps 763 mmHg 60%
    14:00 +32°C° 0.1 mm 5 mps 763 mmHg 63%
    15:00 +30°C° 0.1 mm 5 mps 762 mmHg 67%
    16:00 +29°C° 0.1 mm 5 mps 762 mmHg 71%
    17:00 +28°C° 0.2 mm 5 mps 762 mmHg 75%
    18:00 +27°C° 0.2 mm 5 mps 763 mmHg 78%
    19:00 +26°C° 0.2 mm 5 mps 763 mmHg 82%
    20:00 +27°C° 0.1 mm 5 mps 764 mmHg 81%
    21:00 +27°C° 0.1 mm 5 mps 764 mmHg 80%
    22:00 +27°C° 0.1 mm 5 mps 764 mmHg 80%
    23:00 +27°C° 0.2 mm 5 mps 764 mmHg 80%

    20 January, Saturday

    Time Temperature Precipitation Wind Pressure Humidity
    00:00 +26°C° 0.2 mm 5 mps 763 mmHg 81%
    01:00 +26°C° 0.2 mm 5 mps 763 mmHg 82%
    02:00 +26°C° 0.2 mm 5 mps 763 mmHg 82%
    03:00 +26°C° 0.2 mm 6 mps 763 mmHg 82%
    04:00 +26°C° 0.2 mm 6 mps 763 mmHg 82%
    05:00 +26°C° 0.1 mm 6 mps 763 mmHg 81%
    06:00 +27°C° 0.1 mm 6 mps 764 mmHg 81%
    07:00 +27°C° 0.1 mm 7 mps 764 mmHg 81%
    08:00 +28°C° 0 mm 7 mps 765 mmHg 77%
    09:00 +29°C° 0 mm 7 mps 765 mmHg 73%
    10:00 +30°C° 0 mm 7 mps 765 mmHg 69%
    11:00 +30°C° 0 mm 6 mps 764 mmHg 67%
    12:00 +30°C° 0 mm 6 mps 764 mmHg 65%
    13:00 +32°C° 0 mm 6 mps 763 mmHg 63%
    14:00 +30°C° 0.1 mm 6 mps 763 mmHg 67%
    15:00 +29°C° 0.1 mm 6 mps 763 mmHg 71%
    16:00 +29°C° 0.1 mm 6 mps 763 mmHg 75%
    17:00 +28°C° 0.3 mm 6 mps 763 mmHg 78%
    18:00 +27°C° 0.3 mm 6 mps 763 mmHg 82%
    19:00 +26°C° 0.3 mm 7 mps 764 mmHg 86%
    20:00 +27°C° 0.3 mm 7 mps 764 mmHg 84%
    21:00 +27°C° 0.3 mm 7 mps 764 mmHg 82%
    22:00 +27°C° 0.3 mm 7 mps 764 mmHg 81%
    23:00 +27°C° 0.1 mm 7 mps 764 mmHg 81%

    21 January, Sunday

    Time Temperature Precipitation Wind Pressure Humidity
    00:00 +26°C° 0.1 mm 7 mps 764 mmHg 81%
    01:00 +26°C° 0.1 mm 7 mps 763 mmHg 81%
    02:00 +26°C° 0 mm 7 mps 763 mmHg 81%
    03:00 +26°C° 0 mm 7 mps 763 mmHg 81%
    04:00 +26°C° 0 mm 7 mps 763 mmHg 81%
    05:00 +26°C° 0 mm 7 mps 763 mmHg 81%
    06:00 +26°C° 0 mm 6 mps 764 mmHg 81%
    07:00 +26°C° 0 mm 6 mps 764 mmHg 81%
    08:00 +27°C° 0.1 mm 6 mps 764 mmHg 78%
    09:00 +28°C° 0.1 mm 7 mps 765 mmHg 75%
    10:00 +29°C° 0.1 mm 7 mps 765 mmHg 71%
    11:00 +29°C° 0.2 mm 7 mps 764 mmHg 71%
    12:00 +29°C° 0.2 mm 7 mps 763 mmHg 71%
    13:00 +29°C° 0.2 mm 7 mps 763 mmHg 71%
    14:00 +29°C° 0.2 mm 7 mps 762 mmHg 72%
    15:00 +29°C° 0.2 mm 7 mps 762 mmHg 73%
    16:00 +28°C° 0.2 mm 7 mps 762 mmHg 75%
    17:00 +28°C° 0.1 mm 7 mps 762 mmHg 76%
    18:00 +27°C° 0.1 mm 7 mps 763 mmHg 78%
    19:00 +27°C° 0.1 mm 7 mps 763 mmHg 79%
    20:00 +27°C° 0.2 mm 7 mps 763 mmHg 78%
    21:00 +27°C° 0.2 mm 7 mps 763 mmHg 78%
    22:00 +27°C° 0.2 mm 7 mps 763 mmHg 77%
    23:00 +27°C° 0 mm 7 mps 763 mmHg 77%
    Show more